Location: Case del Ponte
(44.7167°N, 10.5833°E)
Time: 07:19:13
(UTC+00:00)

Daily predictions for brighter satellites

Satellite Brightness Start Highest point End
(mag) Time Altitude Azimuth Time Altitude Azimuth Time Altitude Azimuth
BREEZE-M DEB (TANK) 3.4 19:37:05 10° WNW 19:42:02 43° NNE 19:44:14 10° E
Meteor 1-21 4.4 19:38:46 10° SSW 19:44:25 80° W 19:50:04 10° N
Cosmos 2263 Rocket 3.7 19:44:07 10° NW 19:49:10 33° WSW 19:54:12 10° SSW
MetOp-B 4.3 19:46:53 10° SSE 19:52:08 60° ENE 19:57:25 10° N
Cosmos 1110 Rocket 4.2 19:47:17 10° S 19:52:14 49° ESE 19:57:16 10° NNE
In-Cosmos 22 4.0 19:50:04 10° S 19:55:19 78° E 20:00:38 10° NNE
Cosmos 1908 3.8 19:53:20 10° N 19:57:03 42° ENE 20:00:42 10° SSE
Cosmos 1544 Rocket 4.5 19:54:15 10° N 19:58:20 34° ENE 20:02:14 11° SE
Cosmos 1626 3.1 19:55:25 10° SSE 19:58:38 29° E 20:01:53 10° NNE
FALCON 9 DEB 4.1 19:57:15 10° WSW 20:00:36 52° NNW 20:03:58 10° NE
Cosmos 1455 Rocket 3.2 19:58:23 10° N 20:02:50 62° ENE 20:07:15 10° SSE
Okean 1 Rocket 4.3 19:59:32 10° NNW 20:03:39 40° W 20:07:46 10° SSW
Cosmos 2100 Rocket 4.2 19:57:56 10° N 20:04:16 63° ENE 20:10:30 10° SSE
ARIANE 5 R/B 3.5 20:01:01 10° SE 20:05:01 37° ENE 20:09:09 10° N
USA 81 4.2 19:59:52 10° N 20:05:09 81° W 20:10:25 10° S
Meteor 2-20 Rocket 4.5 19:59:09 10° S 20:05:16 88° E 20:11:24 10° N
ERS-2 4.4 20:02:35 10° N 20:05:45 28° WNW 20:08:54 10° SW
ATLAS 3B R/B 2.9 20:00:18 10° S 20:06:28 46° ESE 20:12:48 10° NE
BREEZE-M DEB (TANK) 2.1 20:04:23 10° WSW 20:06:42 73° SSE 20:10:54 10° ENE
Cosmos 1315 Rocket 4.3 20:03:05 10° NNW 20:06:54 36° W 20:10:40 10° SSW
Cosmos 1707 3.9 20:03:18 10° SSW 20:07:01 44° WNW 20:10:47 10° N
IGS 5A 3.8 20:04:04 10° S 20:08:12 67° W 20:12:22 10° NNW
Cosmos 2333 4.5 20:04:08 10° S 20:09:37 48° ESE 20:15:07 10° NE
Cosmos 1461 3.0 20:07:39 10° NW 20:11:51 71° WSW 20:15:24 13° SSE
ATLAS CENTAUR R/B 2.0 20:10:14 10° NNW 20:14:29 51° NE 20:18:22 13° SE
Cosmos 2173 Rocket 4.1 20:10:53 10° N 20:17:17 74° E 20:23:38 10° SSE
Cosmos 405 4.2 20:14:40 10° NNE 20:17:41 27° ENE 20:19:49 15° SE
SL-8 R/B 3.8 20:13:31 10° WNW 20:18:18 70° SSW 20:22:21 14° SE
SL-4 R/B 3.3 20:17:20 10° S 20:20:29 20° SE 20:23:28 10° E
Cosmos 2016 Rocket 4.3 20:15:13 10° N 20:21:11 52° ENE 20:26:21 14° SSE
Cosmos 2219 Rocket 2.6 20:17:07 10° S 20:22:26 43° ESE 20:27:46 10° NE
Meteor 2-5 Rocket 4.5 20:18:45 13° SSE 20:23:05 34° E 20:28:05 10° NNE
Cosmos 2333 Rocket 2.4 20:18:11 10° S 20:23:43 52° ESE 20:29:16 10° NE
FALCON 9 DEB 2.7 20:22:57 10° SW 20:26:02 67° SE 20:29:09 10° ENE
ERS-1 Rocket 3.4 20:24:08 15° SE 20:28:08 50° ENE 20:33:01 10° N
Cosmos 1025 Rocket 3.0 20:24:10 10° S 20:28:31 72° E 20:32:53 10° NNE
Geosat 4.5 20:24:37 14° SE 20:28:43 51° ENE 20:33:35 10° NNW
Lacrosse 5 rocket 1.7 20:26:04 10° WSW 20:29:43 57° NW 20:33:17 10° NE
Cosmos 1844 3.7 20:25:48 10° NNW 20:31:24 84° WSW 20:36:02 15° SSE
Cosmos 1536 Rocket 4.1 20:28:12 15° SSE 20:31:31 41° E 20:35:42 10° NNE
Spot 2 Rocket 3.5 20:28:30 14° SSE 20:32:53 80° ENE 20:38:00 10° NNW
Cosmos 1725 Rocket 4.2 20:29:30 10° N 20:35:37 58° ENE 20:40:27 17° SSE
Cosmos 1331 Rocket 4.2 20:30:51 10° SSW 20:36:05 77° WNW 20:41:24 10° NNE
USA 215 4.4 20:31:41 10° E 20:36:05 19° ESE 20:38:12 16° SE
Cosmos 1900 4.4 20:35:27 10° NW 20:40:21 74° WSW 20:43:50 19° SSE
DNEPR-1 R/B 3.6 20:36:22 10° NNW 20:40:36 72° NE 20:43:36 20° SE
FALCON 9 DEB 3.3 20:38:37 10° WSW 20:41:42 64° NNW 20:44:47 10° NE
CARTOSAT-1 3.6 20:40:17 17° SSE 20:43:37 86° WSW 20:47:58 10° NNW
Cosmos 2237 Rocket 3.6 20:41:59 16° SE 20:43:50 19° E 20:47:40 10° ENE
Terra 2.3 20:41:19 19° SE 20:44:29 48° ENE 20:49:05 10° N
SL-14 R/B 3.3 20:41:31 15° S 20:44:45 70° E 20:48:46 10° NNE
SPOT 1/Viking Rocket 4.1 20:40:41 11° S 20:45:36 56° W 20:50:41 10° NNW
Cosmos 2360 Rocket 3.1 20:41:19 10° SW 20:46:48 51° WNW 20:52:19 10° NNE
Cosmos 1674 4.1 20:43:28 10° SW 20:46:54 35° WNW 20:50:21 10° N
FALCON 9 DEB 3.1 20:46:33 10° WSW 20:49:38 70° NNW 20:52:46 10° NE
Cosmos 2322 Rocket 4.2 20:46:12 10° WSW 20:51:12 31° NW 20:56:14 10° N
SPOT 5 2.9 20:48:16 19° SSE 20:51:58 81° ENE 20:56:50 10° NNW
Cosmos 1953 3.6 20:48:30 10° NNW 20:52:16 37° W 20:56:00 10° SSW
FALCON 9 DEB 3.6 20:49:12 10° WSW 20:52:16 56° NNW 20:55:20 10° NE
Cosmos 1455 4.4 20:51:42 10° NE 20:53:40 14° ENE 20:55:06 11° E
Meteor 1-24 Rocket 3.9 20:51:24 19° SSE 20:55:01 50° E 21:00:20 10° NNE
Cosmos 1802 Rocket 4.2 20:50:08 10° NNW 20:56:25 73° W 21:01:56 14° S
Cosmos 1302 Rocket 4.0 20:52:08 10° SSW 20:57:24 84° ESE 21:02:40 10° NNE
Cosmos 1459 Rocket 4.4 20:51:53 10° NNW 20:57:47 57° W 21:03:32 11° SSW
H-2A R/B 3.9 20:54:13 10° NNE 20:58:06 41° E 20:59:52 26° SSE
Cosmos 1300 2.6 21:00:36 10° N 21:04:25 87° E 21:06:19 28° S
Resurs 01 Rocket 4.0 21:02:03 10° SW 21:05:00 17° W 21:07:58 10° NW
Cosmos 1340 3.4 21:07:27 12° SSW 21:10:46 51° WNW 21:14:27 10° N
Cosmos 2322 4.1 21:08:47 10° SW 21:14:23 65° WNW 21:20:02 10° NNE
COSMOS 2428 2.7 21:10:18 10° SSW 21:16:02 89° WNW 21:21:50 10° NNE
Cosmos 2278 Rocket 2.7 21:12:03 10° NNW 21:17:36 51° ENE 21:20:55 23° SE
Cosmos 1844 Rocket 4.1 21:13:27 10° NW 21:18:18 30° WSW 21:22:30 13° SSW
GENESIS II 4.4 21:20:01 35° S 21:21:14 49° ESE 21:25:01 10° NE
NOSS 0 Rocket 4.1 21:17:59 21° S 21:22:04 54° ESE 21:28:08 10° NE
Cosmos 389 Rocket 2.7 21:20:08 10° N 21:23:30 52° ENE 21:24:17 41° ESE
Cosmos 1726 Rocket 4.3 21:21:02 10° N 21:25:16 41° ENE 21:26:53 29° ESE
Cosmos 2058 Rocket 4.5 21:21:50 10° NNE 21:25:35 26° ENE 21:27:08 21° ESE
Cosmos 1867 3.6 21:20:31 10° NW 21:26:02 86° NE 21:28:54 29° SE
ATLAS 2A CENTAUR R/B 4.5 21:23:59 10° SW 21:27:26 12° SSW 21:27:33 12° SSW
Cosmos 968 Rocket 3.5 21:25:51 10° NNW 21:30:57 71° WSW 21:33:29 30° S
Cosmos 1486 Rocket 3.9 21:31:14 10° NNW 21:36:28 85° WSW 21:38:52 33° SSE
SJ 16-02 3.8 21:35:58 10° NNE 21:37:44 12° NE 21:39:30 10° ENE
Meteor 2-10 Rocket 3.4 21:35:15 10° NNW 21:40:20 83° W 21:42:36 33° S
Cosmos 1606 Rocket 3.5 21:36:29 10° N 21:40:59 77° E 21:42:32 40° SSE
Cosmos 1992 Rocket 3.9 21:37:59 23° SSW 21:41:15 86° ESE 21:46:32 10° NNE
ARIANE 5 R/B 4.5 21:38:34 13° SW 21:41:33 24° W 21:45:11 10° NW
Cosmos 2233 Rocket 4.1 21:35:46 10° NNW 21:41:53 70° W 21:45:35 25° S
Cosmos 1943 Rocket 4.2 21:38:58 10° N 21:42:52 19° NE 21:46:45 10° E
Cosmos 1892 Rocket 3.8 21:43:59 40° SE 21:45:12 53° E 21:49:32 10° NNE
Cosmos 1346 Rocket 3.0 21:47:04 33° SSW 21:48:43 67° WNW 21:52:45 10° N
Cosmos 1354 Rocket 4.1 21:47:26 10° NNW 21:52:47 68° ENE 21:55:00 35° SE
ATLAS CENTAUR R/B 3.3 21:49:44 10° WNW 21:53:06 21° WSW 21:54:30 19° SW
Cosmos 1980 3.6 21:51:14 28° SSW 21:54:21 75° ESE 22:00:03 10° NNE
Cosmos 1441 Rocket 4.0 21:54:42 34° E 21:54:51 34° E 21:58:20 10° NNE
BREEZE-M DEB (TANK) 3.2 21:44:51 10° SW 21:56:27 68° SSE 21:59:52 10° ENE
ATLAS 3B R/B 3.8 21:50:58 10° WSW 21:57:11 43° NW 22:03:39 10° NNE
ALOS 2 3.9 21:57:54 25° ESE 21:59:21 30° ENE 22:03:12 10° N
NOSS 3-1 (C) 4.3 21:59:23 24° ESE 21:59:36 24° ESE 22:04:11 10° ENE
SL-4 R/B 1.9 21:55:37 10° WSW 21:59:46 82° NNW 22:03:36 10° ENE
Centaur D AC-28 4.5 21:59:58 24° S 22:04:16 32° SE 22:42:39 10° E
Centaur D AC-28 4.5 21:59:58 24° S 22:04:17 32° SE 22:42:39 10° E
Cosmos 2219 Rocket 3.8 22:01:26 10° WSW 22:06:30 33° NW 22:11:36 10° N
Cosmos 2333 Rocket 4.1 22:03:22 10° WSW 22:08:17 29° NW 22:13:13 10° N
Cosmos 1703 3.5 22:08:43 49° ESE 22:09:04 51° E 22:12:54 10° NNE
Lacrosse 5 rocket 4.3 22:07:07 10° WNW 22:09:26 16° NNW 22:11:44 10° NNE
Cosmos 1607 3.9 22:03:36 10° NW 22:10:03 85° WSW 22:12:53 35° SSE
Cosmos 2228 4.0 22:08:29 10° NNW 22:12:35 39° W 22:14:06 29° SW
Cosmos 1626 Rocket 4.4 22:12:19 34° ESE 22:12:55 35° E 22:16:58 10° NNE
Iridium 2 3.9 22:12:19 50° SW 22:13:03 62° W 22:16:46 10° N
Cosmos 2346 Rocket 4.4 22:16:24 37° SSE 22:18:54 71° E 22:25:04 10° NNE
USA 215 3.1 22:13:17 10° NE 22:19:50 71° SE 22:25:28 15° SW
Meteor 2-1 Rocket 4.1 22:14:40 10° N 22:20:14 83° E 22:22:14 41° SSE
Terra 3.8 22:20:12 15° SW 22:22:30 20° W 22:25:58 10° NW
COBE Rocket 4.0 22:22:10 44° SSE 22:23:44 72° ENE 22:28:39 10° N
SL-16 R/B 2.6 22:23:55 38° SE 22:25:11 44° ESE 22:30:33 10° NE
Cosmos 2237 Rocket 2.4 22:23:45 23° SW 22:27:18 66° WNW 22:32:55 10° NNE
Cosmos 1455 2.8 22:25:53 10° NNW 22:29:32 45° W 22:29:59 43° WSW
Cosmos 1184 Rocket 3.3 22:29:49 49° W 22:29:52 49° WNW 22:33:03 10° N
Cosmos 1328 3.9 22:31:00 56° ESE 22:31:08 56° E 22:34:57 10° NNE
Cosmos 1464 Rocket 4.0 22:25:21 10° N 22:31:44 78° W 22:34:26 37° S
Cosmos 2369 Rocket 3.9 22:32:24 10° N 22:37:09 26° NE 22:41:39 11° ESE
GEOS 3 Rocket 3.6 22:38:08 41° SSE 22:40:04 84° SW 22:45:28 10° NW
ATLAS CENTAUR R/B 3.2 22:40:45 29° SW 22:43:39 85° SE 22:56:08 10° NE
Cosmos 1816 Rocket 4.4 22:47:50 41° S 22:50:10 87° E 22:56:20 10° N
NOSS 2-3 (D) 4.2 22:51:07 37° ESE 22:51:07 37° ESE 22:54:58 10° NE
USA 32 4.1 22:46:40 10° N 22:51:55 67° E 22:53:23 46° SE
Aureole 3 4.3 22:48:31 10° N 22:52:20 43° E 22:53:19 37° ESE
USA 267 3.5 22:46:54 11° ESE 22:53:07 68° NNE 22:59:37 10° NW
Okean 1-7 Rocket 4.2 22:54:15 38° WSW 22:55:26 49° WNW 22:59:45 10° N
Cosmos 1812 Rocket 3.6 22:54:21 10° N 22:58:42 69° E 22:59:22 58° SE
BREEZE-M DEB (TANK) 3.9 22:56:58 10° WNW 23:00:36 54° N 23:11:25 10° E
Cosmos 2278 Rocket 3.5 22:56:45 10° NW 23:01:21 26° WSW 23:02:45 23° SW
Cosmos 2058 Rocket 4.3 22:59:42 10° NNW 23:03:33 30° W 23:04:24 27° WSW
Cosmos 2297 3.6 22:58:35 10° NNW 23:04:16 86° ENE 23:06:11 44° SSE
NOSS 2-3 (C) 3.5 23:07:22 59° SE 23:07:26 59° ESE 23:12:02 10° NE
Cosmos 2034 Rocket 4.2 23:01:45 10° NNW 23:07:47 58° W 23:10:01 37° SSW
Thor Agena Rocket 3.7 23:03:22 10° NNE 23:08:33 61° ESE 23:09:46 47° SSE
SAR-Lupe-2 3.5 23:06:04 10° NNE 23:09:33 84° N 23:09:33 84° N
SJ 16-02 1.1 23:12:33 10° NNW 23:16:57 83° WSW 23:17:27 69° S
Meteor 1-11 4.2 23:19:57 45° SSW 23:21:45 79° W 23:27:22 10° N
In-Cosmos 22 Rocket 4.5 23:23:39 41° SE 23:25:14 54° E 23:30:34 10° NNE
GP-B 3.0 23:20:52 10° N 23:25:21 79° W 23:26:01 63° SSW
Meteor 1-27 4.2 23:19:49 10° N 23:25:24 77° E 23:27:14 44° SSE
Cosmos 1825 Rocket 3.7 23:25:14 55° SE 23:25:50 62° E 23:30:14 10° NNE
Meteor 1-4 Rocket 3.9 23:24:00 10° NNW 23:26:36 28° W 23:26:36 28° W
Cosmos 1943 Rocket 2.0 23:21:45 10° NNW 23:27:17 80° WSW 23:28:53 48° SSE
Cosmos 1892 2.9 23:30:16 60° ESE 23:30:21 60° E 23:34:12 10° NNE
Cosmos 2142 Rocket 4.5 23:29:15 10° N 23:35:25 76° E 23:37:53 39° SSE
ALOS 2 3.9 23:35:17 27° WSW 23:35:39 27° W 23:39:26 10° NW
Cosmos 1437 Rocket 4.4 23:32:55 10° NNE 23:36:12 26° ENE 23:37:14 23° E
Tsikada Rocket 4.4 23:34:14 32° SW 23:36:50 52° WNW 23:42:51 10° N
Cosmos 1869 3.4 23:33:35 10° N 23:37:41 70° E 23:38:08 63° SE
Cosmos 1943 3.8 23:36:45 36° SE 23:38:06 42° ESE 23:43:23 10° NE
CZ-2D R/B 4.2 23:35:13 10° NE 23:38:12 15° E 23:40:22 12° ESE
SL-4 R/B 3.7 23:36:11 10° WNW 23:39:41 31° N 23:42:59 10° NE
Cosmos 990 Rocket 4.1 23:35:48 10° NNW 23:41:00 71° ENE 23:42:50 40° SE
Lacrosse 4 Rocket 4.1 23:38:48 10° N 23:41:18 15° NE 23:43:45 10° E
USA 229 DEB 3.5 23:38:45 38° SSW 23:41:27 83° SE 23:48:18 10° NE
USA 229 3.5 23:38:53 38° SSW 23:41:33 82° SE 23:48:23 10° NE
EO 1 Del DPAF 3.4 23:38:57 10° NNE 23:42:38 56° ESE 23:42:38 56° ESE
DELTA 2 R/B (1) 4.2 23:47:09 36° SE 23:47:09 36° SE 23:51:18 10° E
Cosmos 1603 4.0 23:46:12 41° SSE 23:47:45 52° ESE 23:53:14 10° NE
NOSS 3-1 (C) 3.7 23:46:44 26° WSW 23:49:45 58° NW 23:56:00 10° NNE
Cosmos 1953 Rocket 3.5 23:50:41 61° SSE 23:51:22 76° E 23:55:48 10° NNE
SL-16 R/B 4.1 23:46:50 10° ESE 23:52:02 29° ENE 23:57:14 10° N
Cosmos 1408 2.4 23:53:09 87° W 23:53:10 87° WNW 23:56:52 10° N
Cosmos 1825 2.5 23:54:28 52° ESE 23:54:39 53° E 23:58:20 10° NNE
USA 306 4.1 23:56:43 29° ESE 23:56:43 29° ESE 23:59:47 10° ENE
